| time (UTC) | temp F | wind direction | speed MPH | gust MPH | rain 1hr in | rain 24hr in | rain mn in | humidity % | barometer mb |
| 20260509154303 | -12 | 283 | 1.0 | 9.0 | 5.64 | 0.00 | 0.00 | 91 | 1015.4 |
| 20260509153803 | -6 | 0 | 0.0 | 0.0 | 5.64 | 0.00 | 0.00 | 91 | 1015.4 |
| 20260509153303 | 7 | 0 | 0.0 | 0.0 | 5.64 | 0.00 | 0.00 | 91 | 1015.5 |
| 20260509152803 | 25 | 0 | 0.0 | 0.0 | 5.64 | 0.00 | 0.00 | 91 | 1015.6 |
| 20260509152306 | 0 | 250 | 12.0 | 20.0 | 5.64 | 0.00 | 0.00 | 91 | 1015.7 |
| 20260509151804 | -6 | 198 | 13.0 | 21.0 | 5.64 | 0.00 | 0.00 | 90 | 1015.6 |
| 20260509151303 | -7 | 0 | 0.0 | 0.0 | 5.64 | 0.00 | 0.00 | 91 | 1015.4 |
| 20260509150803 | -9 | 0 | 0.0 | 0.0 | 5.64 | 0.00 | 0.00 | 94 | 1015.5 |
| 20260509150303 | -7 | 222 | 3.0 | 12.0 | 5.64 | 0.00 | 0.00 | 95 | 1015.6 |
| 20260509145804 | -6 | 211 | 6.0 | 15.0 | 5.64 | 0.00 | 0.00 | 96 | 1015.7 |
| 20260509145306 | -6 | 214 | 0.0 | 7.0 | 5.64 | 0.00 | 0.00 | 97 | 1015.9 |
| 20260509144803 | -7 | 198 | 8.0 | 19.0 | 5.64 | 0.00 | 0.00 | 98 | 1015.9 |
| 20260509144303 | -4 | 0 | 0.0 | 0.0 | 5.64 | 0.00 | 0.00 | 99 | 1015.7 |
| 20260509143803 | -4 | 0 | 0.0 | 0.0 | 5.64 | 0.00 | 0.00 | 98 | 1015.8 |
| 20260509143303 | -3 | 0 | 0.0 | 0.0 | 5.64 | 0.00 | 0.00 | 100 | 1015.9 |
| 20260509142805 | -3 | 0 | 0.0 | 0.0 | 5.64 | 0.00 | 0.00 | 100 | 1015.9 |
| 20260509142306 | -3 | 0 | 0.0 | 0.0 | 5.64 | 0.00 | 0.00 | 100 | 1015.8 |
| 20260509141803 | 0 | 0 | 0.0 | 0.0 | 5.64 | 0.00 | 0.00 | 100 | 1015.9 |
| 20260509141303 | 21 | 0 | 0.0 | 0.0 | 5.64 | 0.00 | 0.00 | 100 | 1015.9 |
| 20260509140803 | -2 | 0 | 0.0 | 0.0 | 5.64 | 0.00 | 0.00 | 100 | 1016.0 |
| 20260509140303 | -3 | 0 | 0.0 | 0.0 | 5.64 | 0.00 | 0.00 | 100 | 1016.3 |
| 20260509135803 | -3 | 0 | 0.0 | 0.0 | 5.64 | 0.00 | 0.00 | 100 | 1015.8 |
| 20260509135306 | -4 | 0 | 0.0 | 0.0 | 5.64 | 0.00 | 0.00 | 100 | 1016.2 |
| 20260509134803 | -3 | 0 | 0.0 | 0.0 | 5.64 | 0.00 | 0.00 | 100 | 1016.0 |
| 20260509134308 | -2 | 0 | 0.0 | 0.0 | 5.64 | 0.00 | 0.00 | 100 | 1015.8 |
| 20260509133803 | -2 | 0 | 0.0 | 0.0 | 5.64 | 0.00 | 0.00 | 100 | 1015.9 |
| 20260509133303 | -2 | 0 | 0.0 | 0.0 | 5.64 | 0.00 | 0.00 | 100 | 1016.1 |
| 20260509132804 | -7 | 0 | 0.0 | 0.0 | 5.64 | 0.00 | 0.00 | 100 | 1016.0 |
| 20260509132306 | -7 | 0 | 0.0 | 0.0 | 5.64 | 0.00 | 0.00 | 100 | 1016.1 |
| 20260509131803 | -5 | 0 | 0.0 | 0.0 | 5.64 | 0.00 | 0.00 | 100 | 1016.1 |
| 20260509131303 | -6 | 0 | 0.0 | 0.0 | 5.64 | 0.00 | 0.00 | 98 | 1016.1 |
| 20260509130803 | -5 | 0 | 0.0 | 0.0 | 5.64 | 0.00 | 0.00 | 99 | 1016.1 |
| 20260509130304 | -4 | 0 | 0.0 | 0.0 | 5.64 | 0.00 | 0.00 | 98 | 1016.2 |
| 20260509125805 | -2 | 0 | 0.0 | 0.0 | 5.64 | 0.00 | 0.00 | 99 | 1016.1 |
| 20260509125308 | -5 | 0 | 0.0 | 0.0 | 5.64 | 0.00 | 0.00 | 99 | 1016.1 |
| 20260509124803 | -6 | 0 | 0.0 | 0.0 | 5.64 | 0.00 | 0.00 | 99 | 1016.2 |
| 20260509124303 | -6 | 0 | 0.0 | 0.0 | 5.64 | 0.00 | 0.00 | 100 | 1016.5 |
| 20260509123803 | -6 | 0 | 0.0 | 0.0 | 5.64 | 0.00 | 0.00 | 100 | 1016.5 |
| 20260509123303 | -6 | 0 | 0.0 | 0.0 | 5.64 | 0.00 | 0.00 | 100 | 1016.2 |
| 20260509122804 | -7 | 0 | 0.0 | 0.0 | 5.64 | 0.00 | 0.00 | 100 | 1016.4 |
| 20260509122306 | -7 | 0 | 0.0 | 0.0 | 5.64 | 0.00 | 0.00 | 100 | 1016.4 |
| 20260509121804 | -5 | 0 | 0.0 | 0.0 | 5.64 | 0.00 | 0.00 | 100 | 1016.5 |
| 20260509121303 | -5 | 0 | 0.0 | 0.0 | 5.64 | 0.00 | 0.00 | 100 | 1016.5 |
| 20260509120803 | -6 | 0 | 0.0 | 0.0 | 5.64 | 0.00 | 0.00 | 100 | 1016.6 |
| 20260509120304 | -6 | 0 | 0.0 | 0.0 | 5.64 | 0.00 | 0.00 | 100 | 1016.3 |
| 20260509115803 | -7 | 0 | 0.0 | 0.0 | 5.64 | 0.00 | 0.00 | 100 | 1016.6 |
| 20260509115306 | -8 | 0 | 0.0 | 0.0 | 5.64 | 0.00 | 0.00 | 100 | 1016.5 |
| 20260509114803 | 1 | 0 | 0.0 | 0.0 | 5.64 | 0.00 | 0.00 | 100 | 1016.3 |
| 20260509114305 | -2 | 0 | 0.0 | 0.0 | 5.64 | 0.00 | 0.00 | 99 | 1016.3 |
| 20260509113803 | -3 | 0 | 0.0 | 0.0 | 5.64 | 0.00 | 0.00 | 100 | 1016.3 |
| 20260509113303 | -4 | 0 | 0.0 | 0.0 | 5.64 | 0.00 | 0.00 | 99 | 1016.1 |
| 20260509112804 | -5 | 0 | 0.0 | 0.0 | 5.64 | 0.00 | 0.00 | 98 | 1016.2 |
| 20260509112306 | -5 | 0 | 0.0 | 0.0 | 5.64 | 0.00 | 0.00 | 98 | 1016.0 |
| 20260509111804 | -6 | 0 | 0.0 | 0.0 | 5.64 | 0.00 | 0.00 | 98 | 1016.2 |
| 20260509111303 | -6 | 0 | 0.0 | 0.0 | 5.64 | 0.00 | 0.00 | 98 | 1016.2 |
| 20260509110810 | -5 | 0 | 0.0 | 0.0 | 5.64 | 0.00 | 0.00 | 100 | 1016.1 |
| 20260509110303 | -1 | 0 | 0.0 | 0.0 | 5.64 | 0.00 | 0.00 | 99 | 1016.0 |
| 20260509105803 | -4 | 0 | 0.0 | 0.0 | 5.64 | 0.00 | 0.00 | 100 | 1016.3 |
| 20260509105306 | -7 | 0 | 0.0 | 0.0 | 5.64 | 0.00 | 0.00 | 100 | 1016.3 |
| 20260509104803 | -8 | 0 | 0.0 | 0.0 | 5.64 | 0.00 | 0.00 | 99 | 1016.4 |
| 20260509104303 | -4 | 0 | 0.0 | 0.0 | 5.64 | 0.00 | 0.00 | 99 | 1016.4 |
| 20260509103803 | 2 | 0 | 0.0 | 0.0 | 5.64 | 0.00 | 0.00 | 98 | 1016.3 |
| 20260509103303 | -4 | 0 | 0.0 | 0.0 | 5.64 | 0.00 | 0.00 | 98 | 1016.3 |
| 20260509102808 | -8 | 0 | 0.0 | 0.0 | 5.64 | 0.00 | 0.00 | 98 | 1016.4 |
| 20260509102305 | -8 | 0 | 0.0 | 0.0 | 5.64 | 0.00 | 0.00 | 98 | 1016.2 |
| 20260509101805 | -9 | 0 | 0.0 | 0.0 | 5.64 | 0.00 | 0.00 | 97 | 1016.2 |
| 20260509101304 | -5 | 0 | 0.0 | 0.0 | 5.64 | 0.00 | 0.00 | 97 | 1016.2 |
| 20260509100803 | -5 | 283 | 1.0 | 7.0 | 5.64 | 0.00 | 0.00 | 97 | 1016.1 |
| 20260509100303 | -6 | 0 | 0.0 | 0.0 | 5.64 | 0.00 | 0.00 | 97 | 1016.2 |
| 20260509095804 | 0 | 0 | 0.0 | 0.0 | 5.64 | 0.00 | 0.00 | 97 | 1016.2 |
| 20260509095306 | 1 | 0 | 0.0 | 0.0 | 5.64 | 0.00 | 0.00 | 97 | 1016.2 |
| 20260509094804 | -1 | 0 | 0.0 | 0.0 | 5.64 | 0.00 | 0.00 | 96 | 1016.2 |
| 20260509094304 | 0 | 0 | 0.0 | 0.0 | 5.64 | 0.00 | 0.00 | 96 | 1016.2 |
| 20260509093803 | 0 | 0 | 0.0 | 0.0 | 5.64 | 0.00 | 0.00 | 95 | 1016.1 |
| 20260509093303 | 0 | 0 | 0.0 | 0.0 | 5.64 | 0.00 | 0.00 | 95 | 1016.1 |
| 20260509092805 | 1 | 0 | 0.0 | 0.0 | 5.64 | 0.00 | 0.00 | 94 | 1016.1 |
| 20260509092306 | 0 | 0 | 0.0 | 0.0 | 5.64 | 0.00 | 0.00 | 94 | 1016.1 |
| 20260509091804 | 1 | 0 | 0.0 | 0.0 | 5.64 | 0.00 | 0.00 | 93 | 1016.1 |
| 20260509091303 | 0 | 0 | 0.0 | 0.0 | 5.64 | 0.00 | 0.00 | 92 | 1016.1 |
| 20260509090805 | 1 | 0 | 0.0 | 0.0 | 5.64 | 0.00 | 0.00 | 92 | 1016.2 |
| 20260509090304 | 3 | 0 | 0.0 | 0.0 | 5.64 | 0.00 | 0.00 | 91 | 1016.2 |
| 20260509085803 | -1 | 0 | 0.0 | 0.0 | 5.64 | 0.00 | 0.00 | 91 | 1016.2 |
| 20260509085306 | 6 | 0 | 0.0 | 0.0 | 5.64 | 0.00 | 0.00 | 91 | 1016.2 |
| 20260509084804 | -3 | 0 | 0.0 | 0.0 | 5.64 | 0.00 | 0.00 | 90 | 1016.2 |
| 20260509084304 | -2 | 0 | 0.0 | 0.0 | 5.64 | 0.00 | 0.00 | 90 | 1016.3 |
| 20260509083804 | -4 | 0 | 0.0 | 0.0 | 5.64 | 0.00 | 0.00 | 90 | 1016.3 |
| 20260509083304 | -4 | 0 | 0.0 | 0.0 | 5.64 | 0.00 | 0.00 | 90 | 1016.2 |
| 20260509082804 | -4 | 0 | 0.0 | 0.0 | 5.64 | 0.00 | 0.00 | 90 | 1016.2 |
| 20260509082306 | 0 | 0 | 0.0 | 0.0 | 5.64 | 0.00 | 0.00 | 90 | 1016.2 |
| 20260509081804 | -3 | 0 | 0.0 | 0.0 | 5.64 | 0.00 | 0.00 | 90 | 1016.1 |
| 20260509081304 | 0 | 0 | 0.0 | 0.0 | 5.64 | 0.00 | 0.00 | 90 | 1016.0 |
| 20260509080804 | 18 | 0 | 0.0 | 0.0 | 5.64 | 0.00 | 0.00 | 90 | 1016.1 |
| 20260509080304 | 28 | 0 | 0.0 | 0.0 | 5.64 | 0.00 | 0.00 | 90 | 1015.9 |
| 20260509075804 | -3 | 0 | 0.0 | 0.0 | 5.64 | 0.00 | 0.00 | 90 | 1016.0 |
| 20260509075306 | 2 | 0 | 0.0 | 0.0 | 5.64 | 0.00 | 0.00 | 89 | 1016.0 |
| 20260509074805 | 1 | 0 | 0.0 | 0.0 | 5.64 | 0.00 | 0.00 | 90 | 1016.0 |
| 20260509074304 | 0 | 0 | 0.0 | 0.0 | 5.64 | 0.00 | 0.00 | 89 | 1016.1 |
| 20260509073804 | 1 | 0 | 0.0 | 0.0 | 5.64 | 0.00 | 0.00 | 90 | 1016.1 |
| 20260509073304 | 2 | 0 | 0.0 | 0.0 | 5.64 | 0.00 | 0.00 | 90 | 1016.1 |
| 20260509072807 | 1 | 0 | 0.0 | 0.0 | 5.64 | 0.00 | 0.00 | 90 | 1016.1 |
| 20260509072306 | 1 | 0 | 0.0 | 0.0 | 5.64 | 0.00 | 0.00 | 89 | 1016.1 |
| 20260509071804 | 1 | 0 | 0.0 | 0.0 | 5.64 | 0.00 | 0.00 | 88 | 1016.1 |
| 20260509071304 | 0 | 0 | 0.0 | 0.0 | 5.64 | 0.00 | 0.00 | 87 | 1016.1 |
| 20260509070806 | 2 | 0 | 0.0 | 0.0 | 5.64 | 0.00 | 0.00 | 86 | 1016.2 |
| 20260509070304 | 2 | 0 | 0.0 | 0.0 | 5.64 | 0.00 | 0.00 | 85 | 1016.2 |
| 20260509065805 | 1 | 0 | 0.0 | 0.0 | 5.64 | 0.00 | 0.00 | 84 | 1016.2 |
| 20260509065306 | 3 | 0 | 0.0 | 0.0 | 5.64 | 0.00 | 0.00 | 82 | 1016.3 |
| 20260509064804 | 3 | 0 | 0.0 | 0.0 | 5.64 | 0.00 | 0.00 | 82 | 1016.4 |
| 20260509064308 | 2 | 0 | 0.0 | 0.0 | 46.60 | 0.00 | 0.00 | 81 | 1016.3 |
| 20260509064304 | 3 | 0 | 0.0 | 0.0 | 5.64 | 0.00 | 0.00 | 81 | 1016.3 |
| 20260509063804 | 8 | 0 | 0.0 | 0.0 | 5.64 | 0.00 | 0.00 | 81 | 1016.3 |
| 20260509063308 | 10 | 0 | 0.0 | 0.0 | 5.64 | 0.00 | 0.00 | 80 | 1016.5 |
| 20260509062804 | 7 | 0 | 0.0 | 0.0 | 5.64 | 0.00 | 0.00 | 80 | 1016.6 |
| 20260509062306 | 11 | 0 | 0.0 | 0.0 | 5.64 | 0.00 | 0.00 | 79 | 1016.6 |
| 20260509061804 | 10 | 0 | 0.0 | 0.0 | 5.64 | 0.00 | 0.00 | 80 | 1016.6 |
| 20260509061305 | 10 | 0 | 0.0 | 0.0 | 5.64 | 0.00 | 0.00 | 79 | 1016.7 |
| 20260509060804 | 10 | 0 | 0.0 | 0.0 | 5.64 | 0.00 | 0.00 | 79 | 1016.7 |
| 20260509060309 | 11 | 0 | 0.0 | 0.0 | 5.64 | 0.00 | 0.00 | 80 | 1016.9 |
| 20260509055804 | 8 | 0 | 0.0 | 0.0 | 5.64 | 0.00 | 0.00 | 79 | 1017.1 |
| 20260509055306 | 8 | 0 | 0.0 | 0.0 | 5.64 | 0.00 | 0.00 | 80 | 1017.2 |
| 20260509054806 | 9 | 0 | 0.0 | 0.0 | 5.64 | 0.00 | 0.00 | 80 | 1017.1 |
| 20260509054309 | 9 | 0 | 0.0 | 0.0 | 5.64 | 0.00 | 0.00 | 80 | 1017.3 |
| 20260509053806 | 9 | 0 | 0.0 | 0.0 | 5.64 | 0.00 | 0.00 | 80 | 1017.2 |
| 20260509053304 | 9 | 0 | 0.0 | 0.0 | 5.64 | 0.00 | 0.00 | 79 | 1017.4 |
| 20260509052811 | 10 | 0 | 0.0 | 0.0 | 5.64 | 0.00 | 0.00 | 79 | 1017.4 |
| 20260509052307 | 8 | 0 | 0.0 | 0.0 | 5.64 | 0.00 | 0.00 | 79 | 1017.4 |
| 20260509051804 | 7 | 0 | 0.0 | 0.0 | 5.64 | 0.00 | 0.00 | 79 | 1017.5 |
| 20260509051305 | 10 | 0 | 0.0 | 0.0 | 5.64 | 0.00 | 0.00 | 77 | 1017.6 |
| 20260509050807 | 10 | 0 | 0.0 | 0.0 | 5.64 | 0.00 | 0.00 | 78 | 1017.6 |
| 20260509050304 | 10 | 0 | 0.0 | 0.0 | 5.64 | 0.00 | 0.00 | 77 | 1017.5 |
| 20260509045806 | 10 | 0 | 0.0 | 0.0 | 5.64 | 0.00 | 0.00 | 76 | 1017.5 |
| 20260509045306 | 10 | 0 | 0.0 | 0.0 | 5.64 | 0.00 | 0.00 | 76 | 1017.6 |
| 20260509044804 | 12 | 0 | 0.0 | 0.0 | 5.64 | 0.00 | 0.00 | 76 | 1017.6 |
| 20260509044306 | 15 | 0 | 0.0 | 0.0 | 5.64 | 0.00 | 0.00 | 76 | 1017.6 |
| 20260509043808 | 18 | 0 | 0.0 | 0.0 | 5.64 | 0.00 | 0.00 | 75 | 1017.5 |
| 20260509043304 | 18 | 0 | 0.0 | 0.0 | 5.64 | 0.00 | 0.00 | 75 | 1017.5 |
| 20260509042804 | 18 | 0 | 0.0 | 0.0 | 5.64 | 0.00 | 0.00 | 74 | 1017.6 |
| 20260509042306 | 20 | 0 | 0.0 | 0.0 | 5.64 | 0.00 | 0.00 | 74 | 1017.7 |
| 20260509041804 | 18 | 0 | 0.0 | 0.0 | 5.64 | 0.00 | 0.00 | 74 | 1017.7 |
| 20260509041308 | 20 | 0 | 0.0 | 0.0 | 5.64 | 0.00 | 0.00 | 73 | 1017.7 |
| 20260509040804 | 19 | 0 | 0.0 | 0.0 | 5.64 | 0.00 | 0.00 | 73 | 1017.7 |
| 20260509040305 | 19 | 0 | 0.0 | 0.0 | 5.64 | 0.00 | 0.00 | 73 | 1017.7 |
| 20260509035805 | 27 | 0 | 0.0 | 0.0 | 5.64 | 0.00 | 0.00 | 73 | 1017.7 |
| 20260509035306 | 26 | 0 | 0.0 | 0.0 | 5.64 | 0.00 | 0.00 | 72 | 1017.7 |
| 20260509034804 | 32 | 0 | 0.0 | 0.0 | 5.64 | 0.00 | 0.00 | 72 | 1017.8 |
| 20260509034304 | 14 | 0 | 0.0 | 0.0 | 5.64 | 0.00 | 0.00 | 71 | 1017.8 |
| 20260509033804 | 16 | 0 | 0.0 | 0.0 | 5.64 | 0.00 | 0.00 | 71 | 1017.8 |
| 20260509033304 | 41 | 0 | 0.0 | 0.0 | 5.64 | 0.00 | 0.00 | 71 | 1017.9 |
| 20260509032804 | 42 | 0 | 0.0 | 0.0 | 5.64 | 0.00 | 0.00 | 72 | 1017.9 |
| 20260509032306 | 42 | 0 | 0.0 | 0.0 | 5.64 | 0.00 | 0.00 | 72 | 1017.9 |
| 20260509031804 | 42 | 0 | 0.0 | 0.0 | 5.64 | 0.00 | 0.00 | 72 | 1018.0 |
| 20260509031304 | 42 | 0 | 0.0 | 0.0 | 5.64 | 0.00 | 0.00 | 73 | 1018.1 |
| 20260509030804 | 42 | 0 | 0.0 | 0.0 | 5.64 | 0.00 | 0.00 | 72 | 1018.1 |
| 20260509030305 | 42 | 0 | 0.0 | 0.0 | 5.64 | 0.00 | 0.00 | 72 | 1018.2 |
| 20260509025804 | 42 | 0 | 0.0 | 0.0 | 5.64 | 0.00 | 0.00 | 71 | 1018.2 |
| 20260509025306 | 43 | 0 | 0.0 | 0.0 | 5.64 | 0.00 | 0.00 | 71 | 1018.2 |
| 20260509024806 | 42 | 0 | 0.0 | 0.0 | 5.64 | 0.00 | 0.00 | 71 | 1018.1 |
| 20260509024304 | 42 | 0 | 0.0 | 0.0 | 5.64 | 0.00 | 0.00 | 72 | 1018.1 |
| 20260509023804 | 42 | 0 | 0.0 | 0.0 | 5.64 | 0.00 | 0.00 | 71 | 1018.1 |
| 20260509023304 | 43 | 0 | 0.0 | 0.0 | 5.64 | 0.00 | 0.00 | 71 | 1018.1 |
| 20260509022804 | 43 | 0 | 0.0 | 0.0 | 5.64 | 0.00 | 0.00 | 70 | 1018.1 |
| 20260509022306 | 43 | 0 | 0.0 | 0.0 | 5.64 | 0.00 | 0.00 | 70 | 1018.2 |
| 20260509021804 | 43 | 0 | 0.0 | 0.0 | 5.64 | 0.00 | 0.00 | 70 | 1018.2 |
| 20260509021305 | 41 | 0 | 0.0 | 0.0 | 5.64 | 0.00 | 0.00 | 70 | 1018.2 |
| 20260509020804 | 43 | 0 | 0.0 | 0.0 | 5.64 | 0.00 | 0.00 | 70 | 1018.2 |
| 20260509020304 | 43 | 0 | 0.0 | 0.0 | 5.64 | 0.00 | 0.00 | 70 | 1018.3 |
| 20260509015804 | 43 | 0 | 0.0 | 0.0 | 5.64 | 0.00 | 0.00 | 69 | 1018.3 |
| 20260509015306 | 43 | 0 | 0.0 | 0.0 | 5.64 | 0.00 | 0.00 | 69 | 1018.3 |
| 20260509014805 | 44 | 0 | 0.0 | 0.0 | 5.64 | 0.00 | 0.00 | 68 | 1018.3 |
| 20260509014304 | 44 | 0 | 0.0 | 0.0 | 5.64 | 0.00 | 0.00 | 67 | 1018.2 |
| 20260509013805 | 44 | 0 | 0.0 | 0.0 | 5.64 | 0.00 | 0.00 | 67 | 1018.2 |
| 20260509013305 | 44 | 0 | 0.0 | 0.0 | 5.64 | 0.00 | 0.00 | 67 | 1018.2 |
| 20260509012805 | 44 | 0 | 0.0 | 0.0 | 5.64 | 0.00 | 0.00 | 66 | 1018.2 |
| 20260509012307 | 44 | 0 | 0.0 | 0.0 | 5.64 | 0.00 | 0.00 | 66 | 1018.1 |
| 20260509011805 | 45 | 0 | 0.0 | 0.0 | 5.64 | 0.00 | 0.00 | 66 | 1018.1 |
| 20260509011305 | 45 | 0 | 0.0 | 0.0 | 5.64 | 0.00 | 0.00 | 65 | 1018.1 |
| 20260509010805 | 46 | 0 | 0.0 | 0.0 | 5.64 | 0.00 | 0.00 | 65 | 1018.0 |
| 20260509010305 | 45 | 0 | 0.0 | 0.0 | 5.64 | 0.00 | 0.00 | 65 | 1017.9 |
| 20260509005805 | 45 | 0 | 0.0 | 0.0 | 5.64 | 0.00 | 0.00 | 64 | 1017.9 |
| 20260509005306 | 46 | 0 | 0.0 | 0.0 | 5.64 | 0.00 | 0.00 | 64 | 1017.9 |
| 20260509004805 | 46 | 0 | 0.0 | 0.0 | 5.64 | 0.00 | 0.00 | 64 | 1017.9 |
| 20260509004305 | 47 | 0 | 0.0 | 0.0 | 5.64 | 0.00 | 0.00 | 64 | 1017.9 |
| 20260509003805 | 50 | 0 | 0.0 | 0.0 | 5.64 | 0.00 | 0.00 | 64 | 1018.0 |
| 20260509003305 | 43 | 0 | 0.0 | 0.0 | 5.64 | 0.00 | 0.00 | 64 | 1018.0 |
| 20260509002805 | 45 | 0 | 0.0 | 0.0 | 5.64 | 0.00 | 0.00 | 64 | 1018.0 |
| 20260509002306 | 46 | 0 | 0.0 | 0.0 | 5.64 | 0.00 | 0.00 | 64 | 1018.0 |
| 20260509001805 | 41 | 0 | 0.0 | 0.0 | 5.64 | 0.00 | 0.00 | 64 | 1018.2 |
| 20260509001305 | 43 | 0 | 0.0 | 0.0 | 5.64 | 0.00 | 0.00 | 62 | 1018.0 |
| 20260509000805 | 46 | 0 | 0.0 | 0.0 | 5.64 | 0.00 | 0.00 | 61 | 1018.0 |
| 20260509000305 | 47 | 0 | 0.0 | 0.0 | 5.64 | 0.00 | 0.00 | 61 | 1018.0 |
| 20260508235805 | 47 | 0 | 0.0 | 0.0 | 5.64 | 0.00 | 0.00 | 60 | 1018.1 |
| 20260508235306 | 48 | 0 | 0.0 | 0.0 | 5.64 | 0.00 | 0.00 | 59 | 1018.0 |
| 20260508234805 | 48 | 0 | 0.0 | 0.0 | 5.64 | 0.00 | 0.00 | 59 | 1018.0 |
| 20260508234305 | 49 | 0 | 0.0 | 0.0 | 5.64 | 0.00 | 0.00 | 58 | 1018.0 |
| 20260508233805 | 50 | 0 | 0.0 | 0.0 | 5.64 | 0.00 | 0.00 | 56 | 1018.0 |
| 20260508233305 | 51 | 0 | 0.0 | 0.0 | 5.64 | 0.00 | 0.00 | 54 | 1017.9 |
| 20260508232805 | 51 | 0 | 0.0 | 0.0 | 5.64 | 0.00 | 0.00 | 49 | 1018.0 |
| 20260508232307 | 51 | 0 | 0.0 | 0.0 | 5.64 | 0.00 | 0.00 | 38 | 1018.0 |
| 20260508231805 | 51 | 0 | 0.0 | 0.0 | 5.64 | 0.00 | 0.00 | 35 | 1018.0 |
| 20260508231305 | 51 | 0 | 0.0 | 0.0 | 5.64 | 0.00 | 0.00 | 34 | 1018.0 |
| 20260508230805 | 51 | 0 | 0.0 | 0.0 | 5.64 | 0.00 | 0.00 | 34 | 1018.0 |
| 20260508230305 | 51 | 0 | 0.0 | 0.0 | 5.64 | 0.00 | 0.00 | 37 | 1018.0 |
| 20260508225805 | 51 | 0 | 0.0 | 0.0 | 5.64 | 0.00 | 0.00 | 36 | 1018.1 |
| 20260508225307 | 51 | 0 | 0.0 | 0.0 | 5.64 | 0.00 | 0.00 | 37 | 1018.1 |
| 20260508224805 | 51 | 0 | 0.0 | 0.0 | 5.64 | 0.00 | 0.00 | 34 | 1018.1 |
| 20260508224305 | 51 | 0 | 0.0 | 0.0 | 5.64 | 0.00 | 0.00 | 33 | 1018.2 |
| 20260508223806 | 51 | 0 | 0.0 | 0.0 | 5.64 | 0.00 | 0.00 | 35 | 1018.2 |
| 20260508223305 | 51 | 0 | 0.0 | 0.0 | 5.64 | 0.00 | 0.00 | 34 | 1018.3 |
| 20260508222806 | 51 | 0 | 0.0 | 0.0 | 5.64 | 0.00 | 0.00 | 33 | 1018.2 |
| 20260508222306 | 52 | 0 | 0.0 | 0.0 | 5.64 | 0.00 | 0.00 | 36 | 1018.4 |
| 20260508221805 | 51 | 0 | 0.0 | 0.0 | 5.64 | 0.00 | 0.00 | 34 | 1018.3 |
| 20260508221307 | 51 | 0 | 0.0 | 0.0 | 5.64 | 0.00 | 0.00 | 36 | 1018.4 |
| 20260508220805 | 51 | 0 | 0.0 | 0.0 | 5.64 | 0.00 | 0.00 | 34 | 1018.4 |
| 20260508220305 | 51 | 0 | 0.0 | 0.0 | 5.64 | 0.00 | 0.00 | 38 | 1018.5 |
| 20260508215805 | 51 | 0 | 0.0 | 0.0 | 5.64 | 0.00 | 0.00 | 38 | 1018.5 |
| 20260508215306 | 51 | 0 | 0.0 | 0.0 | 5.64 | 0.00 | 0.00 | 38 | 1018.5 |
| 20260508214805 | 51 | 0 | 0.0 | 0.0 | 5.64 | 0.00 | 0.00 | 38 | 1018.5 |
| 20260508214305 | 51 | 0 | 0.0 | 0.0 | 5.64 | 0.00 | 0.00 | 35 | 1018.5 |
| 20260508213805 | 51 | 0 | 0.0 | 0.0 | 5.64 | 0.00 | 0.00 | 38 | 1018.6 |
| 20260508213305 | 51 | 0 | 0.0 | 0.0 | 5.64 | 0.00 | 0.00 | 37 | 1018.7 |
| 20260508212805 | 51 | 0 | 0.0 | 0.0 | 5.64 | 0.00 | 0.00 | 37 | 1018.8 |
| 20260508212306 | 51 | 283 | 0.0 | 3.0 | 5.64 | 0.00 | 0.00 | 35 | 1018.8 |
| 20260508211805 | 52 | 0 | 0.0 | 0.0 | 5.64 | 0.00 | 0.00 | 37 | 1018.8 |
| 20260508211305 | 52 | 283 | 1.0 | 3.0 | 5.64 | 0.00 | 0.00 | 37 | 1018.8 |
| 20260508210805 | 51 | 0 | 0.0 | 0.0 | 5.64 | 0.00 | 0.00 | 36 | 1018.9 |
| 20260508210305 | 51 | 274 | 11.0 | 18.0 | 5.64 | 0.00 | 0.00 | 36 | 1019.0 |
| 20260508205806 | 51 | 271 | 2.0 | 14.0 | 5.64 | 0.00 | 0.00 | 37 | 1019.0 |
| 20260508205308 | 50 | 0 | 0.0 | 0.0 | 5.64 | 0.00 | 0.00 | 36 | 1018.9 |
| 20260508204806 | 51 | 0 | 0.0 | 0.0 | 5.64 | 0.00 | 0.00 | 35 | 1018.9 |
| 20260508204306 | 51 | 0 | 0.0 | 0.0 | 5.64 | 0.00 | 0.00 | 36 | 1019.1 |
| 20260508203807 | 51 | 0 | 0.0 | 0.0 | 5.64 | 0.00 | 0.00 | 38 | 1019.2 |
| 20260508203305 | 51 | 0 | 0.0 | 0.0 | 5.64 | 0.00 | 0.00 | 39 | 1019.2 |
| 20260508202807 | 50 | 0 | 0.0 | 0.0 | 5.64 | 0.00 | 0.00 | 37 | 1019.2 |
| 20260508202307 | 50 | 0 | 0.0 | 0.0 | 5.64 | 0.00 | 0.00 | 38 | 1019.4 |
| 20260508201806 | 51 | 359 | 0.0 | 3.0 | 5.64 | 0.00 | 0.00 | 39 | 1019.4 |
| 20260508201305 | 51 | 0 | 0.0 | 0.0 | 5.64 | 0.00 | 0.00 | 41 | 1019.5 |
| 20260508200807 | 50 | 267 | 0.0 | 3.0 | 5.64 | 0.00 | 0.00 | 36 | 1019.5 |
| 20260508200305 | 51 | 0 | 0.0 | 0.0 | 5.64 | 0.00 | 0.00 | 34 | 1019.8 |
| 20260508195805 | 51 | 0 | 0.0 | 0.0 | 5.64 | 0.00 | 0.00 | 37 | 1019.6 |
| 20260508195306 | 51 | 0 | 0.0 | 0.0 | 5.64 | 0.00 | 0.00 | 39 | 1020.0 |
| 20260508194806 | 51 | 290 | 2.0 | 14.0 | 5.64 | 0.00 | 0.00 | 40 | 1020.1 |
| 20260508194305 | 50 | 0 | 0.0 | 0.0 | 5.64 | 0.00 | 0.00 | 37 | 1020.2 |
| 20260508193805 | 51 | 277 | 6.0 | 12.0 | 5.64 | 0.00 | 0.00 | 40 | 1020.3 |
| 20260508193307 | 50 | 278 | 12.0 | 17.0 | 5.64 | 0.00 | 0.00 | 42 | 1020.3 |
| 20260508192806 | 50 | 283 | 14.0 | 18.0 | 5.64 | 0.00 | 0.00 | 41 | 1020.4 |
| 20260508192306 | 50 | 269 | 16.0 | 21.0 | 5.64 | 0.00 | 0.00 | 41 | 1020.4 |
| 20260508191806 | 50 | 0 | 0.0 | 0.0 | 5.64 | 0.00 | 0.00 | 42 | 1020.5 |
| 20260508191305 | 50 | 297 | 0.0 | 4.0 | 5.64 | 0.00 | 0.00 | 41 | 1020.5 |
| 20260508190806 | 49 | 0 | 0.0 | 0.0 | 5.64 | 0.00 | 0.00 | 42 | 1020.7 |
| 20260508190306 | 49 | 0 | 0.0 | 0.0 | 5.64 | 0.00 | 0.00 | 42 | 1020.7 |
| 20260508185805 | 49 | 0 | 0.0 | 0.0 | 5.64 | 0.00 | 0.00 | 41 | 1020.7 |
| 20260508185306 | 49 | 0 | 0.0 | 0.0 | 5.64 | 0.00 | 0.00 | 42 | 1020.8 |
| 20260508184806 | 49 | 0 | 0.0 | 0.0 | 5.64 | 0.00 | 0.00 | 41 | 1020.9 |
| 20260508184305 | 50 | 0 | 0.0 | 0.0 | 5.64 | 0.00 | 0.00 | 42 | 1020.9 |
| 20260508183805 | 50 | 0 | 0.0 | 0.0 | 5.64 | 0.00 | 0.00 | 43 | 1021.0 |
| 20260508183307 | 49 | 42 | 5.0 | 15.0 | 5.64 | 0.00 | 0.00 | 46 | 1021.0 |
| 20260508182806 | 49 | 276 | 17.0 | 24.0 | 5.64 | 0.00 | 0.00 | 41 | 1020.9 |
| 20260508182307 | 49 | 0 | 0.0 | 0.0 | 5.64 | 0.00 | 0.00 | 42 | 1021.0 |
| 20260508181807 | 49 | 0 | 0.0 | 0.0 | 5.64 | 0.00 | 0.00 | 43 | 1021.1 |
| 20260508181306 | 49 | 0 | 0.0 | 0.0 | 5.64 | 0.00 | 0.00 | 43 | 1021.2 |
| 20260508180806 | 50 | 0 | 0.0 | 0.0 | 5.64 | 0.00 | 0.00 | 43 | 1021.3 |
| 20260508180306 | 49 | 309 | 1.0 | 9.0 | 5.64 | 0.00 | 0.00 | 47 | 1021.4 |
| 20260508175806 | 49 | 0 | 0.0 | 0.0 | 5.64 | 0.00 | 0.00 | 42 | 1021.5 |
| 20260508175306 | 49 | 0 | 0.0 | 0.0 | 5.64 | 0.00 | 0.00 | 47 | 1021.6 |
| 20260508174806 | 49 | 0 | 0.0 | 0.0 | 5.64 | 0.00 | 0.00 | 42 | 1021.6 |
| 20260508174307 | 48 | 0 | 0.0 | 0.0 | 5.64 | 0.00 | 0.00 | 42 | 1021.5 |
| 20260508173806 | 48 | 0 | 0.0 | 0.0 | 5.64 | 0.00 | 0.00 | 48 | 1021.5 |
| 20260508173306 | 48 | 0 | 0.0 | 0.0 | 5.64 | 0.00 | 0.00 | 47 | 1021.6 |
| 20260508172807 | 48 | 0 | 0.0 | 0.0 | 5.64 | 0.00 | 0.00 | 47 | 1021.7 |
| 20260508171307 | 48 | 0 | 0.0 | 0.0 | 5.64 | 0.00 | 0.00 | 47 | 1021.6 |
| 20260508170807 | 48 | 0 | 0.0 | 0.0 | 5.64 | 0.00 | 0.00 | 48 | 1021.8 |
| 20260508170307 | 48 | 0 | 0.0 | 0.0 | 5.64 | 0.00 | 0.00 | 47 | 1021.8 |
| 20260508165806 | 50 | 0 | 0.0 | 0.0 | 5.64 | 0.00 | 0.00 | 49 | 1022.0 |
| 20260508165307 | 39 | 0 | 0.0 | 0.0 | 5.64 | 0.00 | 0.00 | 51 | 1022.0 |
| 20260508164806 | 41 | 0 | 0.0 | 0.0 | 5.64 | 0.00 | 0.00 | 49 | 1022.2 |
| 20260508164306 | 41 | 0 | 0.0 | 0.0 | 5.64 | 0.00 | 0.00 | 51 | 1022.1 |
| 20260508163806 | 42 | 0 | 0.0 | 0.0 | 5.64 | 0.00 | 0.00 | 49 | 1022.1 |
| 20260508163306 | 45 | 0 | 0.0 | 0.0 | 5.64 | 0.00 | 0.00 | 48 | 1022.1 |
| 20260508162807 | 46 | 278 | 5.0 | 11.0 | 5.64 | 0.00 | 0.00 | 52 | 1022.2 |
| 20260508162307 | 46 | 0 | 0.0 | 0.0 | 5.64 | 0.00 | 0.00 | 51 | 1022.1 |
| 20260508161806 | 46 | 284 | 1.0 | 7.0 | 5.64 | 0.00 | 0.00 | 50 | 1022.5 |
| 20260508161306 | 47 | 58 | 8.0 | 15.0 | 5.64 | 0.00 | 0.00 | 43 | 1022.5 |
| 20260508160806 | 46 | 252 | 5.0 | 14.0 | 5.64 | 0.00 | 0.00 | 56 | 1022.6 |
| 20260508160306 | 46 | 0 | 0.0 | 0.0 | 5.64 | 0.00 | 0.00 | 55 | 1022.6 |
| 20260508155806 | 46 | 131 | 1.0 | 5.0 | 5.64 | 0.00 | 0.00 | 53 | 1022.6 |
| 20260508155306 | 45 | 0 | 0.0 | 0.0 | 5.64 | 0.00 | 0.00 | 56 | 1022.6 |
| 20260508154806 | 45 | 0 | 0.0 | 0.0 | 5.64 | 0.00 | 0.00 | 54 | 1022.6 |